[[{"header":{"parameterUnit":"m.s-1","parameterCategory":1,"la1":30.2991,"la2":30.254,"lo1":-89.0895,"lo2":-89.0444,"dy":0.0017,"dx":0.0017,"nx":28,"ny":28,"refTime":"2024-03-19T03:00:00:Z","depth":0,"parameterNumber":2,"parameterNumberName":"U-component_of_WINDS"},"data":[0,0,0,0,0,0,0,0,0,0,0,0,0,0,0,0,0,0,0,0,0,0,0,0,0,0,0,0,0,0,0,0,0,0,0,0,0,0,0,0,0,0,0,0,0,0,0,0,0,0,0,0,0,0,0,0,0,0,-3.1857,-3.1858,0,-3.198,-3.1981,-3.1982,-3.1898,-3.1895,-3.1891,-3.1887,-3.2012,-3.2018,-3.2025,0,0,0,0,0,0,0,0,0,0,0,0,0,-3.1546,-3.1552,-3.1857,-3.1858,-3.186,-3.1979,-3.1981,-3.1983,-3.1899,-3.1894,-3.189,-3.1885,-3.2009,-3.2017,-3.2026,0,0,0,0,0,0,0,0,0,0,0,0,0,-3.1676,-3.1554,-3.1856,-3.1833,-3.1832,-3.1979,-3.1981,-3.1983,-3.19,-3.1894,-3.1889,-3.1883,-3.2007,-3.2017,-3.2027,-3.2204,0,0,-3.2058,-3.2062,0,0,0,0,0,0,0,0,-3.1669,-3.1688,-3.1834,-3.1834,-3.1834,-3.1918,-3.1917,-3.2057,-3.1901,-3.1874,-3.1887,-3.1881,-3.1985,-3.1997,-3.2032,-3.221,-3.2215,-3.2059,-3.2065,-3.207,-3.2072,0,0,0,0,0,0,0,-3.166,-3.1682,-3.1905,-3.1837,-3.1836,-3.1814,-3.1827,-3.1943,-3.196,-3.1876,-3.187,-3.1886,-3.1983,-3.2022,-3.2034,-3.2217,-3.2059,-3.2068,-3.2074,-3.2078,-3.2544,-3.255,0,0,0,0,0,0,-3.1654,-3.1675,-3.1901,-3.1909,-3.1736,-3.1825,-3.1838,-3.1897,-3.1958,-3.1962,-3.1891,-3.1882,-3.2008,-3.2022,-3.2038,-3.225,-3.207,-3.2079,-3.2085,-3.2538,-3.2545,-3.2552,0,0,0,0,0,0,-3.1647,-3.1675,-3.1896,-3.179,-3.1817,-3.1836,-3.1902,-3.1902,-3.1941,-3.1969,-3.1972,-3.1928,-3.2004,-3.2024,-3.2163,-3.2253,-3.2084,-3.2093,-3.253,-3.254,-3.2549,-3.2674,0,0,0,0,0,0,-3.1639,-3.1673,-3.1742,-3.1793,-3.1823,-3.2021,-3.1908,-3.1908,-3.1959,-3.1948,-3.2005,-3.2009,-3.2001,-3.2148,-3.2173,-3.2264,-3.2101,-3.2523,-3.2535,-3.2546,-3.2662,-3.2686,-3.2707,0,0,0,0,0,-3.1628,-3.1772,-3.1746,-3.1773,-3.191,-3.2026,-3.2043,-3.2032,-3.1967,-3.2035,-3.2053,-3.2007,-3.2238,-3.2163,-3.2191,-3.2286,-3.2517,-3.2531,-3.2545,-3.2652,-3.2681,-3.2707,0,0,0,0,0,0,-3.1731,-3.1778,-3.175,-3.1915,-3.1967,-3.2012,-3.2098,-3.2064,-3.2136,-3.2123,-3.2104,-3.2118,-3.2264,-3.2288,-3.2204,-3.2459,-3.2367,-3.2387,-3.2439,-3.2467,-3.249,-3.2482,-3.211,0,0,0,0,0,-3.1773,-3.1865,-3.19,-3.2043,-3.207,-3.208,-3.213,-3.2117,-3.217,-3.2192,-3.222,-3.2272,-3.2356,-3.2413,-3.2492,-3.2664,-3.2674,-3.2742,-3.2765,-3.2783,-3.2802,-3.2893,-3.2923,-3.2598,-3.2598,-3.2598,0,0,-3.1861,-3.1898,-3.1957,-3.2064,-3.2103,-3.2198,-3.2099,-3.2204,-3.2273,-3.2207,-3.2341,-3.2363,-3.242,-3.2576,-3.2646,-3.2601,-3.2893,-3.2801,-3.2816,-3.2824,-3.291,-3.2941,-3.2968,-3.2607,-3.2606,-3.2604,0,0,-3.207,-3.2107,-3.2229,-3.227,-3.233,-3.2334,-3.2364,-3.2413,-3.2426,-3.2559,-3.2511,-3.2592,-3.2738,-3.2781,-3.2822,-3.3043,-3.3003,-3.3068,-3.3188,-3.3277,-3.3303,-3.3325,-3.3404,-3.3433,-3.3086,-3.3086,-3.3087,0,-3.2172,-3.2313,-3.2296,-3.2404,-3.2452,-3.2396,-3.2518,-3.2558,-3.2641,-3.2675,-3.2622,-3.2803,-3.2838,-3.3002,-3.3056,-3.3091,-3.3123,-3.3063,-3.33,-3.3323,-3.3344,-3.3419,-3.3449,-3.3094,-3.3093,-3.3092,-3.3092,0,-3.2435,-3.2533,-3.2624,-3.2706,-3.2763,-3.2878,-3.2878,-3.2938,-3.2918,-3.2928,-3.3063,-3.3102,-3.3187,-3.3225,-3.3207,-3.3387,-3.3356,-3.3303,-3.321,-3.3383,-3.3453,-3.3482,-3.3105,-3.3102,-3.31,-3.3098,0,0,-3.2716,-3.2784,-3.2818,-3.2853,-3.2914,-3.2989,-3.3099,-3.3183,-3.3235,-3.3293,-3.3385,-3.3508,-3.3458,-3.3504,-3.349,-3.3568,-3.374,-3.3504,-3.3505,-3.3547,-3.3939,-3.3981,-3.4014,-3.3712,-3.3718,-3.3722,-3.3935,0,-3.2928,-3.3123,-3.311,-3.3293,-3.3382,-3.3328,-3.3424,-3.3471,-3.3482,-3.3559,-3.357,-3.3658,-3.3585,-3.3613,-3.3687,-3.3703,-3.3818,-3.3687,-3.3797,-3.3802,-3.3787,-3.4051,-3.4095,-3.4295,-3.3962,-3.3966,-3.397,0,-3.3203,-3.327,-3.3463,-3.3507,-3.3545,-3.3632,-3.3706,-3.378,-3.3831,-3.3833,-3.3884,-3.3855,-3.3965,-3.3868,-3.4018,-3.393,-3.3973,-3.3987,-3.3994,-3.4006,-3.3898,-3.407,-3.4358,-3.4388,-3.4013,-3.4009,-3.4006,0,-3.3389,-3.3527,-3.366,-3.3692,-3.3748,-3.381,-3.3836,-3.3881,-3.3931,-3.3995,-3.4027,-3.4103,-3.4146,-3.4204,-3.4196,-3.4126,-3.4349,-3.4252,-3.4354,-3.4354,-3.4406,-3.4403,-3.4705,-3.4431,-3.4431,-3.443,-3.443,0,-3.3629,-3.3749,-3.3744,-3.3826,-3.3958,-3.394,-3.407,-3.4089,-3.4128,-3.4212,-3.4168,-3.4247,-3.4231,-3.4309,-3.4303,-3.4428,-3.4447,-3.4451,-3.4449,-3.4456,-3.4456,-3.4486,-3.4473,-3.4438,-3.4436,-3.4435,-3.4434,0,-3.3861,-3.3863,-3.4004,-3.4044,-3.4057,-3.4152,-3.4186,-3.4262,-3.4268,-3.4374,-3.4397,-3.4407,-3.4496,-3.4493,-3.4594,-3.459,-3.4744,-3.4725,-3.4728,-3.4724,-3.4827,-3.4818,-3.5161,-3.5204,-3.4901,-3.4904,-3.4906,0,-3.4015,-3.4106,-3.4156,-3.4208,-3.4238,-3.4324,-3.4375,-3.4359,-3.4414,-3.4476,-3.4545,-3.463,-3.4697,-3.4842,-3.4857,-3.4933,-3.4916,-3.5031,-3.4927,-3.4932,-3.4918,-3.4914,-3.4922,-3.5052,-3.5055,-3.5058,-3.506,0,-3.4289,-3.4284,-3.436,-3.4435,-3.4497,-3.4556,-3.4609,-3.4654,-3.4644,-3.4707,-3.4798,-3.485,-3.4952,-3.5037,-3.511,-3.5134,-3.5096,-3.5092,-3.512,-3.513,-3.5128,-3.5131,-3.4784,-3.5085,-3.5083,-3.5081,-3.5079,-3.5078,-3.4487,-3.4564,-3.4611,-3.4696,-3.4734,-3.4785,-3.4858,-3.4873,-3.4948,-3.5031,-3.5016,-3.5118,-3.5162,-3.5256,-3.5287,-3.5365,-3.5324,-3.5365,-3.5375,-3.5386,-3.5397,-3.5114,-3.5378,-3.5377,-3.5377,-3.5376,-3.5375,0,-3.4758,-3.4785,-3.4863,-3.4939,-3.5005,-3.4962,-3.5018,-3.5077,-3.5167,-3.5212,-3.5279,-3.5382,-3.5463,-3.5483,-3.556,-3.5619,-3.5603,-3.5639,-3.5636,-3.5642,-3.5429,-3.5398,-3.5651,-3.5651,-3.5651,-3.5651,-3.5651,-3.5651,-3.4908,-3.5037,-3.5037,-3.5184,-3.5209,-3.5308,-3.5344,-3.5389,-3.5425,-3.5543,-3.561,-3.5622,-3.5657,-3.5736,-3.5808,-3.5811,-3.5842,-3.5886,-3.5883,-3.5685,-3.5657,-3.5631,-3.5601,-3.5893,-3.5893,-3.6089,-3.6091,-3.6092]},{"header":{"parameterUnit":"m.s-1","parameterCategory":1,"la1":30.2991,"la2":30.254,"lo1":-89.0895,"lo2":-89.0444,"dy":0.0017,"dx":0.0017,"nx":28,"ny":28,"refTime":"2024-03-19T03:00:00:Z","depth":0,"parameterNumber":3,"parameterNumberName":"V-component_of_WINDS"},"data":[0,0,0,0,0,0,0,0,0,0,0,0,0,0,0,0,0,0,0,0,0,0,0,0,0,0,0,0,0,0,0,0,0,0,0,0,0,0,0,0,0,0,0,0,0,0,0,0,0,0,0,0,0,0,0,0,0,0,-6.4103,-6.4104,0,-6.4264,-6.4265,-6.4267,-6.4184,-6.418,-6.4176,-6.4172,-6.4332,-6.434,-6.4348,0,0,0,0,0,0,0,0,0,0,0,0,0,-6.3717,-6.3725,-6.4103,-6.4105,-6.4107,-6.4263,-6.4265,-6.4268,-6.4185,-6.418,-6.4175,-6.417,-6.4329,-6.4339,-6.4349,0,0,0,0,0,0,0,0,0,0,0,0,0,-6.3882,-6.3727,-6.4102,-6.4084,-6.4084,-6.4263,-6.4265,-6.4268,-6.4186,-6.418,-6.4173,-6.4167,-6.4326,-6.4338,-6.435,-6.4554,0,0,-6.4388,-6.4394,0,0,0,0,0,0,0,0,-6.3873,-6.3896,-6.4085,-6.4086,-6.4086,-6.4197,-6.4188,-6.4364,-6.4188,-6.4147,-6.4172,-6.4164,-6.4292,-6.4307,-6.4351,-6.4562,-6.4569,-6.4389,-6.4397,-6.4402,-6.4406,0,0,0,0,0,0,0,-6.3862,-6.3889,-6.4166,-6.4088,-6.4089,-6.4066,-6.4083,-6.4221,-6.4253,-6.415,-6.4145,-6.4165,-6.4291,-6.4339,-6.4354,-6.4571,-6.4389,-6.44,-6.4408,-6.4412,-6.4954,-6.496,0,0,0,0,0,0,-6.3852,-6.388,-6.4161,-6.4171,-6.3962,-6.4078,-6.4097,-6.4168,-6.4252,-6.4258,-6.417,-6.4161,-6.4321,-6.434,-6.4359,-6.4602,-6.4402,-6.4414,-6.4421,-6.4947,-6.4955,-6.4963,0,0,0,0,0,0,-6.3844,-6.3878,-6.4154,-6.4024,-6.4058,-6.4092,-6.4173,-6.4175,-6.4223,-6.4267,-6.4272,-6.4214,-6.4317,-6.4342,-6.4506,-6.4607,-6.4419,-6.443,-6.4939,-6.495,-6.4959,-6.509,0,0,0,0,0,0,-6.3833,-6.3875,-6.3955,-6.4027,-6.4065,-6.4301,-6.4179,-6.4182,-6.4245,-6.4233,-6.4309,-6.4316,-6.4314,-6.4488,-6.4518,-6.462,-6.444,-6.493,-6.4944,-6.4956,-6.5077,-6.5104,-6.5127,0,0,0,0,0,-6.382,-6.3985,-6.396,-6.3994,-6.4166,-6.4307,-6.4329,-6.4325,-6.4253,-6.4332,-6.436,-6.4313,-6.4591,-6.4506,-6.4539,-6.4646,-6.4923,-6.494,-6.4955,-6.5066,-6.5099,-6.5126,0,0,0,0,0,0,-6.3924,-6.3994,-6.3967,-6.4161,-6.4229,-6.4293,-6.4393,-6.436,-6.4449,-6.4434,-6.4424,-6.4442,-6.4612,-6.4645,-6.4549,-6.4846,-6.4746,-6.4769,-6.4819,-6.485,-6.4875,-6.4863,-6.445,0,0,0,0,0,-6.397,-6.4081,-6.4135,-6.4301,-6.4337,-6.4359,-6.442,-6.4411,-6.4481,-6.4509,-6.4549,-6.4616,-6.4718,-6.4786,-6.4882,-6.5081,-6.5095,-6.5171,-6.5196,-6.5216,-6.5236,-6.5341,-6.5375,-6.5014,-6.5014,-6.5014,0,0,-6.4065,-6.4117,-6.4188,-6.4323,-6.4375,-6.4488,-6.4384,-6.4508,-6.4591,-6.4527,-6.4685,-6.4716,-6.479,-6.4972,-6.5054,-6.5005,-6.5338,-6.5236,-6.5252,-6.5261,-6.5361,-6.5395,-6.5425,-6.5025,-6.5023,-6.5021,0,0,-6.4297,-6.4348,-6.4491,-6.4544,-6.4624,-6.4637,-6.4671,-6.474,-6.4759,-6.4917,-6.4871,-6.4968,-6.5145,-6.5199,-6.525,-6.5498,-6.5458,-6.553,-6.566,-6.5763,-6.5791,-6.5816,-6.5904,-6.5935,-6.555,-6.555,-6.555,0,-6.4405,-6.4576,-6.4568,-6.4696,-6.4756,-6.4703,-6.4846,-6.4898,-6.5004,-6.5046,-6.4989,-6.5208,-6.5255,-6.5448,-6.5508,-6.5551,-6.5588,-6.5522,-6.5788,-6.5813,-6.5836,-6.592,-6.5953,-6.5558,-6.5557,-6.5556,-6.5556,0,-6.4704,-6.4822,-6.4927,-6.5033,-6.5104,-6.5239,-6.525,-6.5322,-6.5306,-6.5324,-6.5484,-6.5538,-6.5643,-6.5688,-6.5673,-6.5878,-6.5845,-6.5789,-6.5687,-6.5879,-6.5957,-6.5989,-6.557,-6.5567,-6.5565,-6.5563,0,0,-6.5008,-6.5106,-6.5144,-6.519,-6.5273,-6.5363,-6.5493,-6.5598,-6.5659,-6.5733,-6.5842,-6.5991,-6.5939,-6.5996,-6.5986,-6.6077,-6.6268,-6.6009,-6.601,-6.6054,-6.6495,-6.6537,-6.6574,-6.6241,-6.6247,-6.6252,-6.6488,0,-6.5245,-6.5476,-6.5472,-6.5685,-6.5793,-6.5743,-6.5856,-6.5918,-6.5938,-6.603,-6.6051,-6.6157,-6.608,-6.6114,-6.6201,-6.6227,-6.6356,-6.6209,-6.634,-6.6345,-6.6324,-6.6615,-6.6661,-6.6882,-6.6519,-6.6524,-6.6528,0,-6.5553,-6.5638,-6.5862,-6.5927,-6.5971,-6.6074,-6.6168,-6.6257,-6.6324,-6.6332,-6.6396,-6.6371,-6.6501,-6.6395,-6.6573,-6.6473,-6.6525,-6.6546,-6.6554,-6.6566,-6.6448,-6.6635,-6.6952,-6.6985,-6.6576,-6.6572,-6.6569,0,-6.5751,-6.5921,-6.6077,-6.6118,-6.6197,-6.627,-6.6306,-6.6367,-6.6429,-6.6509,-6.6549,-6.6643,-6.6695,-6.6768,-6.6768,-6.6692,-6.6947,-6.6842,-6.6956,-6.6956,-6.7013,-6.7009,-6.7342,-6.7047,-6.7046,-6.7046,-6.7045,0,-6.6016,-6.6155,-6.6167,-6.6263,-6.6416,-6.6408,-6.656,-6.6588,-6.6642,-6.6741,-6.6702,-6.6795,-6.679,-6.6884,-6.6884,-6.703,-6.7054,-6.7062,-6.7061,-6.7066,-6.7065,-6.7101,-6.7085,-6.7054,-6.7053,-6.7051,-6.7049,0,-6.6265,-6.6278,-6.6445,-6.6505,-6.6523,-6.6634,-6.6684,-6.6774,-6.6789,-6.6914,-6.6943,-6.6967,-6.7075,-6.7082,-6.7206,-6.7206,-6.7383,-6.7365,-6.7361,-6.7358,-6.7471,-6.746,-6.7839,-6.7888,-6.7561,-6.7564,-6.7566,0,-6.6433,-6.6539,-6.6611,-6.6675,-6.6715,-6.6818,-6.6881,-6.6876,-6.6942,-6.7025,-6.7105,-6.7209,-6.7292,-6.7466,-6.7493,-6.7587,-6.757,-6.7696,-6.7584,-6.7585,-6.7571,-6.7565,-6.7575,-6.7718,-6.7722,-6.7725,-6.7727,0,-6.673,-6.6731,-6.6824,-6.692,-6.6996,-6.707,-6.7139,-6.7193,-6.7195,-6.7271,-6.7382,-6.7446,-6.7572,-6.7675,-6.7767,-6.7801,-6.7765,-6.7762,-6.7793,-6.78,-6.7793,-6.7797,-6.7421,-6.7754,-6.7751,-6.7749,-6.7748,-6.7747,-6.6944,-6.7035,-6.7099,-6.7203,-6.7254,-6.7319,-6.7406,-6.7432,-6.7524,-6.7627,-6.7618,-6.7739,-6.78,-6.7919,-6.796,-6.8053,-6.801,-6.8056,-6.8067,-6.8079,-6.809,-6.7778,-6.807,-6.8069,-6.8069,-6.8068,-6.8067,0,-6.7238,-6.7277,-6.7372,-6.747,-6.7551,-6.751,-6.7583,-6.7654,-6.7762,-6.7822,-6.7904,-6.8029,-6.8128,-6.8162,-6.8258,-6.8326,-6.8311,-6.8351,-6.8346,-6.8354,-6.8124,-6.8087,-6.8361,-6.8361,-6.8361,-6.8361,-6.8361,-6.8361,-6.7401,-6.7553,-6.7561,-6.7735,-6.7772,-6.7892,-6.7937,-6.7995,-6.8044,-6.8185,-6.8268,-6.8289,-6.8339,-6.8437,-6.8525,-6.8532,-6.8569,-6.8616,-6.8616,-6.84,-6.8371,-6.8342,-6.8308,-6.8624,-6.8624,-6.8838,-6.884,-6.8842]}]]